Wetbulb
63.50 63.56 63.50 63.07 63.34 63.17 62.88 62.78 62.64 62.78 62.45 61.95 61.85 62.44 62.12 62.34 61.70 61.01 58.08 61.00 65.79 67.81 67.13 60.67 60.19 61.42 60.65 60.59 60.81 60.44 48.78 46.41 49.22 49.86 51.38 54.33 52.78 56.34 57.19 54.27 55.20 55.75 53.85 55.90 62.79
64.03 63.84 63.53 63.42 63.33 63.19 62.99 62.93 62.48 62.47 62.50 62.36 61.50 61.33 61.34 61.98 59.09 58.67 62.83 67.83 67.43 67.41 62.15 57.15 57.46 59.03 56.16 57.63 57.45 53.20 49.12 50.46 52.44 51.34 50.34 52.45 52.19 53.19 52.56 52.28 52.50 54.01 55.37 56.56 56.47
64.91 63.73 63.44 63.13 63.11 62.93 62.72 62.73 62.79 62.64 62.25 61.87 61.53 60.97 61.15 61.00 58.05 58.75 66.84 66.93 66.79 67.07 61.82 58.18 58.15 57.55 54.76 57.31 54.73 54.95 49.29 52.97 53.50 53.89 53.90 52.88 52.59 54.45 51.61 50.23 52.44 51.68 53.37 55.02 54.82
63.87 63.51 63.23 63.11 62.75 62.57 62.47 62.40 62.37 62.19 61.35 61.02 61.46 61.54 62.05 59.17 49.68 60.25 66.93 66.10 67.22 65.23 60.69 58.00 56.99 55.63 54.16 52.24 55.41 50.33 53.02 53.59 54.51 55.44 54.29 51.98 53.51 51.27 51.71 51.93 54.54 54.34 53.32 53.64 52.88
63.34 63.53 63.20 62.57 62.42 62.32 62.24 62.24 62.07 61.28 60.47 60.93 61.46 61.23 59.24 56.17 54.85 63.66 68.11 67.55 66.04 60.52 57.81 56.30 53.92 54.29 51.37 53.08 53.43 50.87 52.19 54.11 53.87 53.61 53.22 53.47 50.87 50.45 50.91 53.45 54.84 55.80 54.76 53.39 53.71
63.30 63.57 63.40 62.59 61.85 61.62 61.75 61.86 61.15 60.37 59.90 60.99 60.92 60.11 58.52 51.56 61.18 62.82 60.68 59.59 59.99 58.94 57.58 56.99 54.74 56.02 52.83 52.03 50.91 52.53 52.01 51.75 52.33 52.14 52.42 50.85 50.59 51.20 51.96 53.62 52.89 53.52 52.80 53.10 53.10
62.24 62.63 62.73 62.20 61.50 61.00 61.25 61.24 60.07 59.54 59.71 60.60 61.31 59.32 55.32 51.88 59.37 62.16 60.43 59.09 59.37 58.37 55.84 57.21 56.98 54.05 55.04 51.70 54.40 52.56 48.07 50.03 51.03 51.88 51.56 51.21 47.04 47.63 52.21 52.90 51.63 51.48 51.18 52.39 53.35
61.43 61.47 61.64 61.48 61.02 60.67 60.73 59.96 58.68 59.26 60.67 61.24 61.69 59.19 51.91 58.68 60.52 57.73 58.91 58.38 59.04 59.84 58.75 60.33 58.23 55.42 53.54 54.73 51.98 48.87 48.62 43.81 50.17 50.44 50.34 48.78 42.20 50.04 51.84 49.60 49.82 50.58 49.12 51.73 52.68
61.23 60.94 60.79 60.82 60.26 60.19 59.80 58.57 59.57 59.06 60.46 61.15 58.72 58.55 51.96 60.02 55.09 56.04 57.27 55.76 57.60 58.83 60.49 58.97 57.88 53.34 53.71 48.65 45.85 47.88 42.02 44.92 47.82 50.79 49.86 47.34 43.72 49.51 51.65 50.75 49.86 49.75 50.19 50.28 52.01
60.53 60.03 59.97 60.10 59.87 59.69 58.63 59.47 59.80 57.26 55.88 56.68 58.97 52.53 54.66 51.71 53.54 53.79 56.16 55.54 54.59 56.94 55.74 55.05 53.64 49.71 49.34 46.74 39.81 43.14 43.40 45.15 44.03 48.37 48.76 46.56 45.51 48.76 50.75 50.57 50.00 49.64 49.15 49.57 51.50
59.93 59.60 59.33 59.58 59.41 59.08 56.76 57.79 53.21 52.44 51.89 48.60 48.30 48.97 50.89 52.92 54.46 53.40 55.55 54.02 53.83 53.01 48.30 53.26 48.01 45.33 48.00 48.42 47.95 46.24 44.28 42.69 45.22 48.67 46.57 45.58 45.88 47.40 49.71 49.47 48.65 48.94 48.55 49.65 50.60
59.67 59.23 58.98 58.81 58.31 57.79 57.09 51.09 48.23 48.10 42.77 51.63 50.61 50.83 52.37 51.93 49.33 51.81 54.63 49.56 50.43 46.31 49.61 47.49 44.15 49.30 49.45 48.68 46.58 45.15 42.46 41.81 45.38 48.25 46.40 44.88 44.31 47.19 48.74 48.98 48.72 48.77 48.47 48.19 49.00
59.30 58.87 58.73 58.37 57.96 57.96 53.46 50.87 55.07 52.32 44.25 49.60 50.93 51.22 50.74 52.08 50.36 49.92 51.90 51.66 48.32 46.19 46.54 43.99 46.94 49.81 47.89 45.87 44.17 43.74 41.80 41.61 41.59 44.93 45.76 43.60 41.20 43.84 47.43 48.74 49.22 48.74 48.06 47.45 47.16
58.75 58.54 58.83 58.09 56.49 57.40 53.03 56.46 55.68 53.50 42.72 45.37 48.10 50.52 52.73 52.83 48.63 52.03 51.94 50.59 48.24 45.04 46.03 44.83 48.31 46.74 45.44 44.15 44.80 39.43 45.55 44.49 42.94 40.16 35.01 41.98 31.53 39.83 43.72 45.16 46.03 44.44 43.95 44.29 44.71
58.56 58.32 58.28 57.74 54.52 54.33 54.82 57.94 55.78 50.90 37.66 46.91 47.67 53.63 50.39 47.52 47.80 48.47 52.02 49.56 44.46 44.83 44.95 42.57 44.11 43.54 42.45 43.90 45.43 41.05 45.01 42.80 41.76 38.39 36.90 36.97 33.46 37.25 41.99 41.64 44.39 43.85 42.29 42.17 41.89
58.43 58.23 57.83 57.24 57.14 56.85 57.31 58.00 54.44 42.23 37.84 43.35 47.10 45.76 46.03 46.52 47.48 47.95 47.08 49.23 48.15 43.96 44.37 43.23 47.24 45.44 44.17 45.65 44.54 44.47 41.16 40.21 39.16 36.32 28.93 34.94 34.54 34.62 38.21 41.17 41.39 42.03 41.33 41.43 40.64
57.88 57.98 57.70 57.36 53.42 58.02 57.76 54.19 42.49 38.87 47.79 42.51 43.12 46.01 44.95 43.93 44.66 45.21 43.78 41.53 39.26 36.07 36.56 41.32 41.64 44.61 44.83 40.34 42.77 41.63 36.80 28.21 26.86 26.68 26.78 37.53 34.49 35.22 38.46 40.27 41.27 40.19 40.43 40.98 41.20
57.43 57.37 58.60 57.72 56.81 57.52 55.20 46.85 37.47 44.56 43.71 46.50 45.32 43.79 40.45 43.26 42.91 42.33 41.19 38.81 43.01 41.48 36.86 34.24 31.96 39.29 41.86 39.51 35.98 35.88 34.92 27.60 20.81 22.01 25.66 35.64 28.46 35.47 39.04 41.11 42.08 40.94 40.65 41.00 39.32
56.61 56.94 56.58 55.08 56.18 55.99 49.50 39.18 40.53 42.01 43.49 41.47 41.97 38.90 40.00 41.57 40.62 40.92 40.45 39.85 41.26 40.84 33.68 32.07 32.76 40.93 41.67 40.18 38.40 34.87 30.56 36.92 29.31 30.59 25.67 29.11 34.37 37.27 38.56 38.59 39.51 38.53 38.51 37.80 39.01
53.69 53.15 52.39 55.10 56.10 53.23 45.18 40.45 42.35 45.03 44.13 42.76 35.80 39.56 36.10 38.64 38.22 38.74 38.49 41.95 40.27 42.14 41.69 36.96 29.60 38.05 39.54 41.39 40.00 35.50 38.10 27.36 28.65 22.03 20.67 26.36 29.12 29.98 34.57 33.61 35.51 36.24 37.34 39.12 40.44
53.79 48.15 51.13 55.79 53.80 47.25 39.52 41.31 43.16 45.58 44.45 40.23 38.33 36.99 37.62 36.58 37.62 36.36 37.26 40.80 40.49 40.18 40.64 37.96 33.85 32.73 37.23 34.79 33.93 34.18 32.14 32.74 31.32 27.14 21.24 19.88 24.53 35.78 32.57 33.21 33.45 35.97 38.44 39.08 39.33
51.51 42.89 52.17 53.42 42.75 44.65 40.48 42.14 41.42 42.79 44.68 42.38 41.97 39.82 38.05 37.68 35.66 35.24 35.24 38.57 40.26 39.58 34.85 37.94 34.11 28.14 30.49 37.15 38.47 34.28 31.31 31.14 25.24 23.71 28.23 27.00 25.22 37.30 34.28 34.07 35.33 36.23 38.54 39.10 40.65
47.52 46.98 51.69 50.16 39.81 40.51 42.86 42.17 42.25 40.70 40.94 40.20 38.94 40.40 40.45 36.63 32.70 36.56 37.52 42.17 40.57 38.78 35.54 36.33 30.46 24.03 26.06 31.57 34.44 30.54 31.99 31.55 30.63 29.21 23.10 21.40 24.70 37.05 36.53 33.63 34.71 35.58 37.75 38.19 39.39
47.40 42.97 44.27 45.73 43.76 39.78 38.58 38.18 37.81 42.52 40.83 41.26 39.67 40.62 37.89 35.66 37.72 34.80 35.66 39.72 41.85 39.69 39.83 37.65 30.47 26.91 21.60 25.32 30.04 26.76 28.45 29.94 28.79 24.55 21.77 24.73 26.81 32.18 32.36 32.55 34.27 35.39 36.68 37.73 38.44
47.51 42.19 41.90 38.56 39.39 38.63 38.07 36.63 34.59 34.02 39.73 39.81 37.02 37.14 35.45 30.98 33.18 32.66 35.45 36.19 38.57 40.33 38.07 34.92 26.67 28.93 29.86 31.19 31.23 29.96 29.79 29.42 25.83 25.49 21.33 23.84 25.58 29.45 31.02 31.81 33.43 35.68 37.50 37.61 38.20
44.16 41.59 42.82 37.32 36.97 34.27 35.47 34.30 33.43 35.17 35.85 34.86 34.30 35.78 35.64 32.08 33.24 31.05 33.99 33.61 32.59 35.78 33.81 35.30 26.85 28.91 25.78 30.27 30.75 28.24 30.27 30.05 29.03 28.07 27.24 27.36 25.76 33.77 34.15 32.61 34.07 35.32 37.02 37.13 37.82
47.36 46.84 42.58 38.17 35.48 35.08 33.68 34.77 34.72 35.61 36.04 37.31 35.75 33.92 32.71 34.94 37.52 38.22 37.85 36.72 35.24 32.77 31.61 32.97 29.42 25.66 21.30 28.20 26.23 19.93 26.45 27.48 28.01 29.39 28.34 22.87 28.49 32.78 32.05 34.49 34.37 34.75 37.77 36.86 37.73
MSLP
1018.15 1017.87 1017.50 1017.02 1016.61 1016.23 1015.79 1015.30 1014.75 1014.24 1013.76 1013.32 1012.90 1012.49 1012.12 1011.76 1011.05 1010.47 1009.79 1010.00 1009.71 1009.67 1009.63 1008.94 1008.70 1008.40 1008.32 1008.21 1008.42 1008.27 1008.04 1007.02 1006.20 1005.78 1005.89 1005.80 1005.85 1005.59 1005.68 1005.69 1005.24 1005.17 1005.15 1005.16 1005.48
1018.12 1017.83 1017.45 1016.99 1016.57 1016.16 1015.66 1015.14 1014.64 1014.02 1013.48 1013.01 1012.61 1012.26 1011.95 1011.76 1010.89 1009.55 1010.23 1009.88 1009.85 1009.83 1009.39 1008.64 1008.20 1008.19 1008.07 1007.97 1008.11 1008.10 1007.63 1006.93 1006.65 1006.52 1006.46 1006.37 1006.32 1006.16 1006.21 1005.94 1005.48 1005.14 1004.91 1005.06 1005.26
1018.03 1017.70 1017.33 1016.92 1016.50 1016.04 1015.50 1014.97 1014.47 1013.83 1013.20 1012.64 1012.26 1011.99 1011.78 1011.59 1010.44 1010.06 1010.25 1010.09 1010.05 1009.91 1009.17 1008.71 1008.44 1008.30 1008.02 1007.91 1007.86 1007.57 1007.53 1006.92 1006.80 1006.83 1006.99 1006.93 1006.71 1006.40 1006.30 1006.33 1005.98 1005.72 1005.54 1005.62 1005.82
1018.16 1017.85 1017.46 1016.96 1016.45 1015.91 1015.36 1014.85 1014.32 1013.68 1013.04 1012.51 1012.11 1011.86 1011.63 1011.24 1010.42 1010.20 1010.17 1010.11 1010.03 1009.88 1009.16 1008.66 1008.46 1008.36 1008.05 1007.81 1007.49 1007.93 1007.41 1007.15 1007.08 1006.97 1007.26 1007.18 1006.95 1006.76 1006.56 1006.25 1005.84 1005.65 1005.80 1006.07 1006.19
1018.34 1017.95 1017.46 1016.92 1016.38 1015.77 1015.13 1014.59 1014.01 1013.40 1012.91 1012.53 1012.20 1011.89 1011.61 1010.43 1009.83 1009.94 1010.03 1009.89 1009.60 1009.37 1008.96 1008.69 1008.49 1008.13 1008.06 1007.62 1007.62 1007.50 1007.34 1006.93 1006.95 1006.93 1007.11 1007.21 1007.02 1006.90 1006.24 1005.89 1005.70 1005.61 1005.80 1006.13 1005.92
1018.25 1017.79 1017.24 1016.70 1016.06 1015.37 1014.71 1014.24 1013.68 1013.18 1012.74 1012.45 1012.22 1012.08 1011.25 1009.88 1009.50 1009.45 1009.61 1009.58 1009.30 1009.23 1008.86 1008.92 1008.49 1008.42 1008.33 1007.98 1007.86 1007.36 1007.36 1007.14 1006.88 1006.73 1006.69 1006.69 1006.58 1006.52 1005.70 1005.37 1005.54 1005.65 1005.69 1005.56 1005.45
1018.27 1017.77 1017.23 1016.67 1015.97 1015.19 1014.47 1013.87 1013.38 1012.93 1012.58 1012.32 1012.19 1011.84 1010.34 1010.13 1009.60 1009.49 1009.68 1009.50 1009.58 1009.40 1009.12 1008.93 1008.97 1009.01 1008.46 1008.22 1007.99 1007.79 1007.71 1007.07 1006.30 1006.06 1006.23 1006.60 1006.64 1005.87 1005.13 1005.19 1005.46 1005.41 1005.29 1005.29 1005.51
1018.49 1018.00 1017.41 1016.68 1015.89 1014.92 1013.98 1013.24 1012.98 1012.56 1012.36 1012.12 1012.07 1011.57 1010.19 1009.99 1009.66 1009.71 1009.46 1009.31 1009.54 1009.47 1009.54 1009.43 1009.29 1009.27 1008.94 1008.60 1008.34 1008.00 1007.62 1006.84 1005.67 1005.93 1006.43 1006.85 1006.28 1005.57 1004.85 1005.32 1005.74 1005.61 1005.51 1005.55 1005.75
1018.66 1018.17 1017.57 1016.80 1015.88 1014.72 1013.41 1012.40 1012.22 1012.02 1012.04 1011.85 1011.78 1010.64 1010.04 1010.04 1009.75 1009.85 1009.64 1009.24 1009.26 1009.34 1009.43 1009.35 1009.38 1009.17 1008.78 1008.75 1008.32 1007.35 1007.07 1006.46 1005.77 1005.83 1006.18 1006.57 1006.02 1005.77 1005.41 1005.50 1005.73 1005.68 1005.67 1005.71 1005.92
1018.71 1018.18 1017.60 1016.84 1015.93 1014.75 1013.33 1011.71 1011.54 1011.85 1011.96 1011.28 1010.73 1010.43 1010.04 1010.18 1010.30 1010.23 1009.83 1009.79 1009.41 1009.24 1009.29 1009.36 1009.23 1008.99 1008.73 1008.52 1008.05 1007.53 1007.24 1006.64 1006.46 1006.19 1005.87 1005.89 1005.54 1005.44 1005.33 1005.34 1005.64 1005.65 1005.59 1005.83 1006.40
1018.78 1018.27 1017.76 1017.08 1016.20 1015.15 1013.96 1011.64 1012.46 1012.11 1012.24 1012.16 1011.86 1011.27 1010.69 1010.82 1010.52 1009.93 1009.75 1009.63 1009.59 1009.51 1009.27 1008.75 1009.00 1008.59 1008.10 1008.02 1007.85 1007.88 1007.78 1007.30 1006.79 1006.48 1006.11 1005.67 1005.02 1004.95 1005.13 1005.10 1005.16 1005.42 1005.95 1006.52 1007.20
1018.95 1018.35 1017.77 1017.19 1016.48 1015.67 1014.74 1014.62 1016.37 1016.74 1014.51 1012.40 1011.97 1011.53 1011.28 1011.15 1010.21 1009.89 1010.05 1009.90 1009.40 1009.35 1008.97 1008.83 1008.45 1008.18 1008.37 1008.43 1008.37 1008.32 1008.17 1007.54 1006.73 1006.51 1006.22 1005.72 1005.07 1005.01 1004.83 1004.40 1004.94 1005.57 1006.38 1007.13 1007.95
1019.09 1018.59 1017.72 1017.05 1016.30 1015.63 1015.56 1016.31 1016.44 1016.31 1015.05 1012.30 1011.68 1011.23 1011.29 1011.27 1010.38 1010.24 1010.26 1009.89 1009.60 1009.33 1008.95 1008.62 1008.04 1007.63 1007.99 1008.42 1008.47 1008.19 1008.24 1007.59 1007.22 1006.91 1006.53 1006.41 1004.80 1004.92 1004.50 1004.85 1005.32 1006.00 1006.94 1008.07 1008.84
1019.25 1018.87 1018.06 1016.91 1016.52 1015.53 1015.54 1016.06 1016.13 1016.19 1014.55 1012.54 1011.54 1011.31 1011.11 1010.99 1010.77 1010.80 1010.80 1010.88 1009.97 1009.61 1009.34 1008.81 1008.07 1008.33 1008.34 1008.18 1008.65 1007.70 1008.05 1007.81 1007.67 1007.92 1007.20 1007.49 1005.17 1005.51 1005.39 1005.87 1006.56 1007.05 1008.01 1009.01 1009.79
1019.36 1018.96 1018.28 1017.99 1017.51 1016.10 1016.20 1015.85 1015.87 1015.92 1013.92 1011.72 1011.26 1011.30 1011.00 1010.98 1011.05 1010.99 1011.17 1010.99 1010.70 1010.19 1010.30 1008.60 1008.49 1008.46 1008.51 1008.33 1008.58 1008.31 1008.53 1008.76 1008.88 1008.90 1008.70 1007.74 1007.81 1005.57 1005.82 1005.72 1006.83 1007.79 1008.91 1009.82 1010.56
1019.57 1019.11 1018.57 1017.25 1016.83 1016.60 1016.03 1015.57 1015.28 1014.91 1012.21 1011.45 1011.18 1011.10 1010.65 1010.84 1010.45 1010.59 1011.01 1011.38 1011.01 1010.56 1010.31 1009.43 1009.37 1009.09 1008.60 1008.73 1009.27 1009.58 1009.61 1009.62 1009.69 1009.90 1009.14 1008.49 1008.37 1006.71 1006.62 1006.23 1007.21 1008.53 1009.95 1010.68 1011.34
1019.52 1019.21 1018.78 1018.21 1017.40 1016.79 1016.16 1015.13 1014.52 1013.13 1010.96 1011.57 1011.36 1011.30 1011.21 1010.79 1010.42 1010.64 1010.87 1011.23 1011.45 1010.64 1010.20 1009.71 1009.80 1009.51 1009.73 1009.72 1009.95 1010.40 1010.65 1010.67 1010.27 1010.12 1009.15 1008.74 1008.35 1008.38 1008.50 1008.73 1009.13 1009.74 1010.82 1011.43 1011.74
1019.50 1019.19 1018.33 1017.89 1017.90 1017.24 1016.49 1015.30 1014.07 1012.12 1011.92 1012.19 1012.03 1012.00 1011.73 1011.30 1011.16 1011.59 1011.79 1011.77 1011.78 1011.74 1011.32 1010.64 1009.82 1010.71 1011.58 1011.92 1011.87 1012.17 1012.43 1012.54 1011.69 1011.43 1010.48 1010.33 1009.23 1009.07 1009.93 1010.32 1010.90 1011.63 1011.82 1012.00 1012.04
1019.42 1018.27 1017.63 1018.10 1017.92 1017.54 1016.94 1015.37 1013.75 1013.72 1013.88 1013.55 1012.91 1012.52 1012.14 1012.15 1012.52 1012.48 1012.46 1012.51 1012.68 1013.19 1013.77 1013.11 1011.84 1011.82 1012.43 1012.85 1013.37 1012.84 1013.05 1012.92 1012.70 1012.46 1011.92 1011.19 1010.12 1010.57 1011.10 1011.81 1012.29 1012.30 1012.35 1012.60 1012.59
1019.49 1018.12 1017.88 1018.23 1018.03 1017.65 1016.98 1015.47 1014.63 1014.95 1015.04 1014.78 1014.60 1014.00 1013.67 1013.74 1013.83 1013.75 1013.48 1013.22 1013.66 1014.25 1014.62 1014.55 1013.50 1013.92 1013.44 1013.30 1013.40 1013.73 1013.47 1013.64 1013.79 1013.73 1012.99 1012.01 1011.16 1012.17 1012.64 1013.56 1013.35 1013.22 1013.00 1013.16 1012.93
1019.72 1018.26 1018.78 1018.41 1018.13 1017.61 1016.77 1015.86 1015.72 1015.89 1016.27 1016.27 1015.84 1015.73 1015.60 1015.48 1015.40 1015.31 1014.75 1014.63 1015.11 1015.49 1015.96 1016.10 1015.80 1014.82 1014.96 1014.15 1013.67 1013.99 1014.18 1014.43 1014.81 1015.10 1014.72 1014.08 1013.14 1013.40 1014.12 1014.51 1014.04 1013.46 1013.41 1013.29 1012.57
1019.34 1018.73 1019.17 1018.81 1018.56 1017.37 1017.29 1017.39 1017.89 1017.23 1017.38 1017.29 1017.08 1017.10 1016.90 1016.89 1016.53 1016.67 1016.22 1016.43 1016.87 1017.00 1017.10 1017.30 1017.12 1016.76 1015.92 1015.03 1014.65 1014.94 1015.38 1015.84 1016.54 1016.48 1016.40 1015.85 1014.21 1013.12 1013.49 1013.79 1013.67 1013.40 1013.22 1013.05 1012.85
1019.60 1019.06 1019.49 1019.38 1019.30 1018.98 1018.47 1018.24 1018.58 1018.62 1018.49 1018.31 1018.29 1018.11 1018.18 1018.33 1018.30 1017.82 1017.31 1017.29 1017.82 1018.02 1018.30 1018.65 1018.15 1017.61 1016.36 1015.88 1015.93 1016.38 1016.47 1016.77 1017.05 1017.94 1017.10 1016.75 1014.85 1013.97 1014.02 1014.03 1013.69 1013.49 1013.23 1013.06 1012.97
1020.55 1020.16 1020.39 1020.34 1020.81 1020.67 1020.25 1019.81 1019.60 1019.96 1019.82 1019.85 1019.64 1019.31 1019.11 1019.04 1019.28 1018.79 1018.38 1017.93 1018.04 1018.86 1019.30 1019.78 1019.64 1019.41 1018.38 1017.47 1017.35 1017.37 1017.16 1017.39 1017.90 1017.95 1017.17 1016.24 1015.25 1014.58 1014.73 1014.13 1013.79 1013.53 1013.31 1013.34 1013.29
1021.21 1021.52 1022.06 1021.96 1022.05 1022.28 1022.22 1022.09 1021.36 1021.15 1021.00 1021.03 1020.65 1020.47 1020.00 1019.91 1019.72 1019.25 1018.74 1018.31 1018.49 1018.76 1019.43 1020.33 1020.09 1019.77 1018.74 1017.73 1017.02 1016.49 1016.53 1017.05 1017.32 1017.22 1017.26 1016.12 1015.57 1014.75 1014.19 1013.96 1013.72 1013.56 1013.43 1013.45 1013.34
1021.88 1022.40 1022.75 1023.37 1023.63 1023.48 1023.30 1022.61 1021.89 1021.11 1020.94 1020.83 1020.57 1020.42 1020.43 1020.41 1020.15 1019.79 1019.58 1019.48 1019.26 1019.07 1019.54 1020.56 1020.02 1019.85 1018.59 1017.75 1016.74 1015.83 1015.66 1015.61 1015.60 1015.71 1015.80 1015.41 1014.66 1014.45 1013.84 1013.63 1013.74 1013.66 1013.47 1013.49 1013.38
1022.05 1022.34 1022.61 1023.53 1023.84 1023.51 1023.00 1022.25 1021.48 1021.47 1021.33 1021.05 1020.79 1020.89 1020.81 1020.58 1020.34 1020.26 1020.14 1019.77 1019.63 1019.45 1019.61 1020.48 1020.40 1019.97 1018.66 1017.44 1016.54 1015.78 1014.74 1014.53 1014.32 1014.46 1014.47 1014.10 1013.76 1013.70 1013.62 1013.78 1013.69 1013.57 1013.56 1013.54 1013.29
Wind_Speed
13 15 16 17 18 18 19 20 20 19 19 20 20 18 18 16 18 5 3 5 4 2 4 1 5 1 4 2 3 2 3 5 7 4 5 5 6 3 4 6 5 2 3 1 10
9 12 15 17 17 18 18 19 21 21 20 19 19 18 17 14 7 6 1 6 3 2 7 4 1 3 4 2 3 3 2 4 4 5 6 9 5 5 7 8 6 5 7 4 5
12 14 15 16 17 18 19 20 20 21 20 19 17 15 13 11 6 7 1 4 2 6 10 6 6 3 5 2 4 2 3 5 4 5 6 7 8 7 7 6 8 6 9 10 8
13 14 15 16 18 19 20 20 20 21 20 19 16 13 9 5 4 5 1 1 3 7 8 4 4 3 3 4 4 2 10 5 5 4 2 7 9 9 9 8 8 6 4 6 9
15 14 15 17 19 20 21 20 20 20 19 16 14 11 6 5 7 6 4 4 7 4 5 4 6 6 7 6 5 10 11 6 6 6 7 9 10 10 12 10 10 1 5 8 10
15 16 18 19 20 22 22 21 20 18 15 12 10 9 6 1 2 5 2 2 3 4 3 4 5 8 7 7 7 7 9 11 11 12 12 12 11 8 8 2 3 7 8 10 6
15 16 17 19 21 23 23 21 19 16 11 10 9 6 5 6 2 2 2 2 3 5 6 4 7 6 7 8 7 6 12 12 15 12 4 6 7 13 15 8 8 9 7 7 6
15 17 17 19 22 25 25 22 15 10 8 9 6 6 4 2 5 3 2 4 2 3 4 5 6 8 7 8 9 12 12 6 4 5 5 6 6 12 6 2 7 10 6 7 5
15 16 18 19 22 26 26 26 15 9 8 9 5 6 6 3 1 5 5 4 2 2 2 4 3 5 6 6 8 9 7 10 4 9 6 10 5 9 6 5 8 9 8 4 6
14 16 17 19 22 25 28 27 6 5 7 8 5 5 2 3 4 6 6 3 4 2 5 4 4 5 6 6 6 12 15 15 13 11 14 10 13 10 9 8 11 9 6 5 8
13 16 18 20 21 25 18 6 7 2 10 4 7 4 4 10 7 5 4 4 5 6 8 7 4 7 11 12 13 11 14 17 15 13 15 13 16 10 10 9 10 9 6 8 9
14 16 19 20 21 19 10 7 7 4 10 6 3 5 1 3 2 3 2 4 4 7 9 8 10 9 7 8 10 10 15 17 16 12 13 12 17 13 13 15 6 6 9 9 7
13 15 17 19 22 8 10 7 4 6 6 2 2 3 3 5 5 7 5 2 6 8 9 10 11 14 9 7 13 13 15 17 19 16 15 13 23 16 8 9 8 8 9 8 7
12 14 17 24 4 12 5 9 7 3 5 4 3 3 3 3 1 3 4 4 4 7 8 9 9 5 9 13 12 19 10 16 16 14 15 6 20 17 15 10 8 9 8 8 7
12 12 15 8 7 7 8 8 4 4 4 2 4 2 1 3 4 4 2 4 8 13 11 9 16 16 16 15 13 18 12 13 12 14 17 20 14 15 10 14 17 12 10 9 8
11 11 15 4 6 9 12 11 5 4 2 4 3 0 3 5 2 5 4 6 8 9 12 18 15 15 11 12 8 14 12 12 12 12 16 18 18 17 10 7 13 14 9 8 6
10 11 8 7 7 12 11 8 5 5 3 5 2 4 9 12 16 9 11 7 9 11 13 16 12 19 14 7 9 11 11 9 8 8 13 11 13 5 10 14 13 12 8 6 6
11 9 4 3 8 10 9 5 5 3 7 7 7 14 13 17 4 3 7 10 13 13 13 10 12 6 12 9 7 10 7 7 16 17 19 14 10 4 11 10 9 8 8 7 7
12 5 4 6 7 6 5 5 6 7 6 11 14 12 10 3 2 4 9 11 7 6 5 7 10 22 18 8 5 6 10 13 12 15 13 9 15 9 10 8 4 5 8 7 7
5 6 3 6 5 5 4 5 6 7 9 7 6 6 12 13 13 12 8 8 5 4 6 7 22 9 15 14 7 8 8 7 5 5 6 5 11 4 7 9 9 7 8 8 7
4 4 4 4 4 5 4 4 3 8 8 7 8 11 11 15 12 14 9 16 13 10 10 11 6 12 14 9 16 9 8 9 7 6 5 6 1 8 7 3 3 4 7 7 7
4 3 4 5 4 3 3 5 2 7 10 9 7 10 10 13 12 9 12 11 9 8 8 8 5 5 14 19 10 6 9 9 2 5 2 4 3 6 7 6 6 6 6 7 9
4 2 3 4 3 2 7 5 2 9 8 8 7 4 10 10 6 6 7 8 10 8 10 8 4 9 8 9 7 4 7 9 3 1 11 6 5 3 13 11 7 7 8 7 9
4 2 2 3 3 5 8 7 7 10 6 6 9 10 9 9 9 5 9 10 4 2 2 4 4 10 13 16 13 7 7 5 4 4 6 10 13 12 6 7 6 7 7 8 8
2 3 2 2 3 6 4 4 7 8 1 5 3 6 11 4 10 13 14 12 12 13 4 2 6 12 18 20 20 19 15 14 14 15 11 15 16 11 9 9 5 7 7 8 9
3 2 3 2 0 2 2 3 9 11 9 6 12 13 12 14 13 15 14 11 8 9 2 4 7 11 19 18 19 18 15 16 16 13 15 15 18 13 12 4 6 7 5 7 7
1 2 3 5 2 3 5 9 7 10 7 10 13 15 14 14 14 12 13 13 14 15 14 4 4 3 9 11 7 8 13 14 15 11 12 12 10 7 3 6 7 6 7 6 6
Wind_Direction
357 352 348 345 342 336 331 331 332 329 324 323 322 322 322 322 308 213 32 43 76 139 286 222 238 232 246 206 286 298 285 276 341 34 18 74 350 145 59 254 262 290 275 35 125
338 344 342 340 335 329 326 326 330 324 321 318 317 317 318 324 283 38 76 78 65 340 259 264 316 186 248 213 209 243 254 322 32 12 345 344 315 322 308 311 300 264 261 4 22
331 344 339 334 328 326 326 325 325 320 321 320 316 315 316 316 273 64 40 66 344 293 283 307 297 303 281 159 238 218 262 7 333 36 343 308 303 298 318 292 272 329 340 351 338
347 339 334 330 329 328 325 323 322 321 324 323 321 316 314 261 42 81 91 306 284 283 288 307 265 265 266 277 191 283 267 256 297 300 275 279 303 290 274 266 277 298 7 324 294
341 334 329 331 328 324 323 325 323 322 322 322 326 328 287 218 68 125 188 197 232 271 277 301 288 260 252 314 319 250 252 275 291 262 254 266 265 264 267 265 269 274 212 242 254
345 341 336 332 327 324 322 324 319 318 313 312 325 327 255 301 19 95 109 218 331 266 278 268 301 338 302 266 274 323 317 286 277 267 259 252 261 268 249 261 218 240 243 238 191
348 341 334 328 324 321 320 317 316 313 301 308 322 301 265 75 41 79 238 26 320 322 313 311 325 302 336 289 360 302 287 285 261 241 250 47 278 243 246 221 211 244 248 304 155
347 342 335 329 325 321 317 310 313 298 280 282 298 282 65 59 346 202 224 216 242 268 287 338 304 295 286 313 305 269 259 276 160 146 127 131 287 295 126 186 227 263 283 273 58
345 341 336 331 327 323 316 309 298 244 242 268 256 246 98 178 109 338 305 321 17 256 304 297 271 258 294 256 284 238 263 276 270 189 155 192 265 308 292 267 265 259 271 261 60
345 338 334 331 329 324 320 312 157 240 215 246 263 253 119 39 9 310 269 303 298 284 242 227 229 240 236 239 272 305 304 307 307 311 306 269 255 247 258 288 276 275 280 110 73
343 339 336 333 332 326 332 338 346 163 22 15 334 310 32 330 263 223 37 285 251 260 275 215 262 270 294 310 312 313 298 289 286 289 288 275 277 285 286 266 255 226 241 77 62
347 343 337 332 327 323 337 41 38 314 315 314 284 266 272 331 222 184 330 271 217 284 294 268 242 265 339 324 301 286 283 280 282 283 288 300 284 269 264 252 256 119 98 89 62
348 340 334 326 321 307 66 48 346 314 273 141 6 358 26 302 17 64 310 1 269 282 280 270 278 306 264 273 285 268 279 290 288 303 280 286 273 269 267 81 102 86 95 90 84
347 338 333 326 320 324 68 7 3 326 281 133 164 95 197 305 112 6 6 331 292 287 309 282 276 301 290 278 273 279 279 295 303 305 284 309 289 283 279 163 161 132 109 92 74
342 337 326 345 304 351 326 328 2 243 335 1 106 57 328 336 332 120 28 285 275 295 306 248 300 302 299 279 284 291 330 311 307 292 294 281 272 282 284 283 169 123 102 80 53
334 333 327 17 263 359 324 309 268 253 243 107 115 358 286 157 242 182 211 185 254 276 268 274 269 277 262 285 316 315 303 294 281 271 265 277 266 277 292 310 108 107 94 69 34
326 318 311 302 342 331 318 296 273 254 181 102 36 346 319 304 308 320 320 323 295 306 292 300 311 300 342 335 296 276 279 282 275 253 266 295 300 36 58 41 75 82 66 57 35
309 307 223 1 333 321 313 275 245 286 12 21 5 324 309 299 325 341 304 299 292 327 320 304 318 39 11 342 326 310 286 274 289 286 284 291 269 292 102 86 84 56 34 18 11
314 226 242 44 333 313 296 256 354 25 3 346 328 308 293 25 271 306 293 300 21 32 335 324 274 337 326 353 341 327 291 300 299 285 288 266 273 117 117 93 40 20 26 14 356
304 300 33 341 320 282 256 273 326 50 359 348 313 274 319 332 322 324 315 323 342 39 350 294 292 298 307 299 254 225 285 311 284 290 269 275 281 45 71 41 354 360 11 354 343
268 275 22 333 285 245 242 268 357 34 26 341 338 314 313 311 317 314 291 309 25 12 357 332 296 310 317 291 303 312 277 261 290 282 254 293 247 130 101 247 280 340 355 337 353
288 277 23 328 281 245 274 13 354 336 341 303 294 282 292 338 312 309 311 333 39 358 331 313 306 286 293 284 307 7 310 310 250 282 337 289 284 138 89 40 359 8 351 358 358
294 24 56 328 289 272 298 277 356 300 300 336 311 305 315 314 315 342 334 5 57 19 4 348 292 306 293 281 63 340 314 323 110 221 242 269 238 211 13 338 1 345 346 10 359
310 303 47 13 1 337 340 335 312 26 335 319 299 318 304 307 284 262 274 290 350 326 345 327 249 259 272 279 294 272 267 277 261 272 278 254 288 309 218 301 351 332 356 8 346
347 43 17 12 51 34 41 24 293 296 205 322 282 267 290 292 297 282 288 319 317 312 125 294 260 277 281 285 282 275 259 242 243 241 251 278 283 293 306 302 337 325 17 356 341
23 30 80 47 52 45 148 205 265 277 305 272 287 309 320 305 299 315 309 310 286 304 277 204 259 290 285 286 274 280 270 267 256 261 234 252 266 273 288 21 335 316 17 351 337
65 112 288 134 260 266 239 258 316 330 298 307 325 313 303 296 313 306 302 292 286 285 276 238 245 268 272 288 321 288 257 263 250 251 261 260 262 301 24 336 301 326 360 312 321